Indianapolis, IN

3:40 AM EDT on September 19, 2019 (GMT -0400)
Indianapolis International

Weather History for KIND - August, 2019

Change the Weather History Date:

Friday, August 23, 2019

  Actual Average Record
Temperature  
Mean Temperature 72 °F 74 °F  
Max Temperature 79 °F 84 °F 96 °F (1936)
Min Temperature 64 °F 64 °F 46 °F (1890)
Degree Days  
Heating Degree Days 0 0  
Month to date heating degree days 0 0  
Since 1 June heating degree days 9 17  
Since 1 July heating degree days 0 1  
Cooling Degree Days 7 9  
Month to date cooling degree days 265 223  
Year to date cooling degree days 994 856  
Since 1 June cooling degree days 883 772  
Growing Degree Days 22 (Base 50)    
Moisture  
Dew Point 59 °F    
Average Humidity 71    
Maximum Humidity 100    
Minimum Humidity 42    
Precipitation  
Precipitation 0.00 in 0.10 in 2.07 in (1877)
Month to date precipitation 2.24 2.33  
Year to date precipitation 35.25 28.53  
Snow  
Snow 0.00 in 0.00 in 0.00 in ()
Month to date snowfall 0.0 0.0  
Since 1 June snowfall 0.0 0.0  
Since 1 July snowfall 0.0 0.0  
Snow Depth 0.00 in    
Sea Level Pressure  
Sea Level Pressure 30.09 in    
Wind  
Wind Speed 10 mph (NE)    
Max Wind Speed 17 mph    
Max Gust Speed 24 mph    
Visibility 10 miles    
Events      
T = Trace of Precipitation, MM = Missing Value Source: NWS Daily Summary

Daily Weather History Graph

Daily Weather History Graph

Search for Another Location

Airport or City:

Astronomy

Aug. 23, 2019 Rise Set
Actual Time 7:04 AM EDT 8:30 PM EDT
Civil Twilight 6:36 AM EDT 8:58 PM EDT
Nautical Twilight 6:02 AM EDT 9:32 PM EDT
Astronomical Twilight 5:26 AM EDT 10:08 PM EDT
Moon 12:22 AM EDT (8/23) 2:39 PM EDT (8/23)
Length of Visible Light 14h 22m
Length of Day
13h 25m
Waning Gibbous, 50% of the Moon is Illuminated
Aug 23
Waning Gibbous
Aug 30
New
Sep 5
First Quarter
Sep 14
Full
Sep 21
Last Quarter

Hourly Weather History & Observations

Time (EDT) Temp. Dew Point Humidity Pressure Visibility Wind Dir Wind Speed Gust Speed Precip Events Conditions
12:54 AM 72.0 °F 66.9 °F 84% 30.00 in 10.0 mi NE 10.4 mph - N/A   Overcast
1:54 AM 71.1 °F 66.9 °F 87% 30.01 in 10.0 mi NE 9.2 mph - N/A   Mostly Cloudy
2:54 AM 70.0 °F 66.0 °F 87% 30.02 in 10.0 mi NE 9.2 mph - N/A   Mostly Cloudy
3:54 AM 69.1 °F 66.0 °F 90% 30.01 in 10.0 mi NE 8.1 mph - N/A   Scattered Clouds
4:54 AM 68.0 °F 64.9 °F 90% 30.01 in 10.0 mi NE 9.2 mph - N/A   Scattered Clouds
5:54 AM 66.9 °F 64.0 °F 90% 30.04 in 10.0 mi NNE 8.1 mph - N/A   Scattered Clouds
6:54 AM 64.9 °F 64.0 °F 97% 30.05 in 10.0 mi NNE 10.4 mph - N/A   Scattered Clouds
7:23 AM 64.9 °F 64.0 °F 97% 30.08 in 8.0 mi NNE 10.4 mph - N/A   Mostly Cloudy
7:54 AM 64.9 °F 63.0 °F 93% 30.09 in 10.0 mi NE 9.2 mph - N/A   Mostly Cloudy
8:54 AM 66.9 °F 62.1 °F 84% 30.10 in 10.0 mi NE 11.5 mph - N/A   Scattered Clouds
9:54 AM 71.1 °F 59.0 °F 66% 30.11 in 10.0 mi ENE 10.4 mph - N/A   Mostly Cloudy
10:54 AM 73.0 °F 59.0 °F 61% 30.12 in 10.0 mi East 12.7 mph - N/A   Mostly Cloudy
11:54 AM 73.9 °F 59.0 °F 59% 30.12 in 10.0 mi ENE 10.4 mph - N/A   Mostly Cloudy
1:54 PM 75.0 °F 57.0 °F 53% 30.12 in 10.0 mi NE 11.5 mph - N/A   Mostly Cloudy
2:54 PM 78.1 °F 54.0 °F 43% 30.12 in 10.0 mi ENE 13.8 mph 21.9 mph N/A   Mostly Cloudy
3:54 PM 75.9 °F 54.0 °F 46% 30.11 in 10.0 mi NNE 15.0 mph - N/A   Mostly Cloudy
4:54 PM 77.0 °F 54.0 °F 45% 30.10 in 10.0 mi East 9.2 mph - N/A   Mostly Cloudy
5:54 PM 75.0 °F 54.0 °F 48% 30.10 in 10.0 mi NE 9.2 mph - N/A   Mostly Cloudy
6:54 PM 75.0 °F 54.0 °F 48% 30.10 in 10.0 mi NE 11.5 mph - N/A   Mostly Cloudy
7:54 PM 73.0 °F 52.0 °F 48% 30.11 in 10.0 mi NE 11.5 mph - N/A   Mostly Cloudy
8:54 PM 71.1 °F 54.0 °F 55% 30.12 in 10.0 mi ENE 10.4 mph 21.9 mph N/A   Scattered Clouds
9:54 PM 69.1 °F 53.1 °F 57% 30.15 in 10.0 mi NE 9.2 mph - N/A   Partly Cloudy
10:54 PM 66.9 °F 53.1 °F 61% 30.17 in 10.0 mi NE 10.4 mph - N/A   Clear
11:54 PM 66.0 °F 54.0 °F 65% 30.17 in 10.0 mi ENE 6.9 mph - N/A   Clear